Tracking 28126 objects as of 1-Oct-2023
HD Live streaming from Space Station
objects crossing your sky now

MEASAT 3D

Track MEASAT 3D now!
MEASAT 3D is classified as:


NORAD ID: 52904
Int'l Code: 2022-067B
Perigee: 35,786.5 km
Apogee: 35,802.5 km
Inclination: 0.0 °
Period: 1,436.1 minutes
Semi major axis: 42165 km
RCS: Unknown
Launch date: June 22, 2022
Source: Malaysia (MALA)
Launch site: FRENCH GUIANA (FRGUI)
Your satellite tracking list
Your tracking list is empty




NASA's NSSDC Master Catalog

Two Line Element Set (TLE):
1 52904U 22067B   23273.08493361 -.00000254  00000-0  00000-0 0  9990
2 52904   0.0094 290.7277 0001892 319.8046 240.1257  1.00269173  4712
Source of the keplerian elements: AFSPC